User: anonymous   Login
Location: Heidgraben
(53.7081°N, 9.6576°E)
Time: 18:33:28
(UTC+00:00)
Language:

Cosmos 1892 - Orbit

View from above orbital plane
View from above orbital plane
View from above satellite
View from above satellite

Ground track
Ground track

The orbit data is extracted from the following two-line orbital elements,

1 18421U 87088A   20262.86090029 +.00000656 +00000-0 +31253-4 0  9998
2 18421 082.5029 181.0990 0016668 100.1234 260.1881 15.17224161798718
Epoch (UTC): 18 September 2020 20:39:41
Eccentricity: 0.0016668
inclination: 82.5029°
perigee height: 503 km
apogee height: 526 km
right ascension of ascending node: 181.0990°
argument of perigee: 100.1234°
revolutions per day: 15.17224161
mean anomaly at epoch: 260.1881°
orbit number at epoch: 79871

The dashed part of the orbit path shows where the satellite is in the earth's shadow,  

DLR